STARLINK-36833, 68109

Orbit data source: Space-Track

STARLINK-36833, 68109 is a payload satellite owned by SpaceX/Seattle (US) in SSO that was launched on Sun, 08 Mar 2026 UTC via an FALCON 9 launch vehicle from the Air Force Western Test Range (AFWTR). Payload-class satellites include a variety of spacecraft equipped with specific instruments for various scientific and technological missions. These include communications satellites like Starlink; space stations such as the ISS; scientific satellites like the Hubble; Earth observation satellites from companies like Planet Labs, Umbra, and HawkEye 360; GPS; miniature CubeSats for education and research; and military/defense satellites.

Loading next visibility...
Identifier
68109, 2026-044J
Orbit
SSO
Country
Flag of USUS
Related business
Manufacturer
SpaceX/Seattle
Mission
Operational spacecraft
Bus & Motor
STARLINK V2MO, Unknown motor
Mass
575 kg wet, ~530 kg dry
Launch date (UTC)
2026-03-08 (2 months ago)
Launch vehicle
FALCON 9
Launch site
Air Force Western Test Range (AFWTR)
Object type
Payload
Rocket body
Debris
Shape & HBR
Unknown shape, 17.7 m
Radar Cross Section
RCS unknown

Expand to show TLE details & history
Last TLE update: 12 hours ago

TLE from 12 hours ago
0 STARLINK-36833
1 68109U 26044J   26119.39893820  .00016936  00000-0  52568-3 0  9995
2 68109  97.2851  80.3767 0001948  98.1095 262.0369 15.33447625  9358
Epoch: 2026-04-29T09:34Z
TLE epoch observation values (Epoch: 2026-04-29T09:34:28.260Z)
Latitude
-0°
Longitude
79.39849°
Altitude
468.832 km
Speed
7.632 km/s
True Right ascension
05h 21m 30s
True Declination
0° 00' 00"
Sunlit
Object was in daylight at epoch
Visualization orbit readout
Latitude
Unknown
Longitude
Unknown
Altitude
Unknown
Speed
Unknown
Apparent Right ascension
Unknown
Apparent Declination
Unknown
Sunlit
N/A
Visualization observer readout
Local Sidereal Time
04:40:53
Azimuth
Unknown
Elevation
Unknown
Doppler factor
Unknown
Orbital elements
Apogee altitude
463.811 km
Perigee altitude
461.146 km
Semi-major axis
6,840.615 km
Eccentricity
0.00019
Inclination
97.2851°
RAAN
80.3767°
Arg. of periapsis
98.1095°
True anomaly
262.01479°
Mean anomaly
262.0369°
Eccentric anomaly
262.02585°
Mean motion
3.83619 °/min
Orbital period
93.84 mins
BSTAR
0.00052568
Loading maneuver chart data...
Computing Atmospheric mass density...
Loading historical data...
Loading historical data...
Loading historical data...
Loading historical data...
Loading historical data...
Loading historical data...
Loading historical data...

Documentation

Showing up to 5 results
|